Regional Weather Roundup
Issued by NWS Portland, ME

Current Version | Previous Version | Text Only | Print | Product List | Glossary On
Versions: 1 2 3 4 5 6 7 8 9 10 11 12 13 14 15 16 17 18 19 20 21 22 23 24 25 26 27 28 29 30 31 32 33 34 35 36 37 38 39 40 41 42 43 44 45 46 47 48 49 50
000
ASUS41 KGYX 301810
RWRGYX
WEATHER ROUNDUP FOR MAINE AND NEW HAMPSHIRE
NATIONAL WEATHER SERVICE GRAY ME
200 PM EDT THU OCT 30 2014

MEZ002-005-006-010-012-015-018-020-021-024-026-027-029-301900-
MAINE

CITY           SKY/WX    TMP DP  RH WIND       PRES   REMARKS
PORTLAND       PTSUNNY   57  40  52 N6        29.89F
6HR MIN TEMP:  39; 6HR MAX TEMP:  59;

SANFORD        MOSUNNY   55  34  44 NW9       29.90R
BAR HARBOR     CLOUDY    54  43  66 W9        29.86S
WISCASSET      CLOUDY    54  40  59 NW3       29.89F
6HR MIN TEMP:  36; 6HR MAX TEMP:  55;

ROCKLAND       CLOUDY    54  39  58 W8        29.86S
FRYEBURG       PTSUNNY   56  35  45 NW14      29.89S
6HR MIN TEMP:  37; 6HR MAX TEMP:  56;

LEWISTONAUBURN MOSUNNY   55  36  47 NW10G16   29.88S
AUGUSTA        PTSUNNY   52  38  58 W7        29.88S
6HR MIN TEMP:  40; 6HR MAX TEMP:  53;

WATERVILLE     SUNNY     54  36  50 W5        29.84S
BANGOR         PTSUNNY   52  41  66 SW8       29.85F
6HR MIN TEMP:  38; 6HR MAX TEMP:  53;

GREENVILLE       N/A     48  32  53 VRB7      29.81F
6HR MIN TEMP:  41; 6HR MAX TEMP:  49;

MILLINOCKET    SUNNY     53  34  48 W8        29.84S
6HR MIN TEMP:  43; 6HR MAX TEMP:  54;

HOULTON        PTSUNNY   50  35  56 W6        29.80S
6HR MIN TEMP:  40; 6HR MAX TEMP:  52;

PRESQUE ISLE   CLOUDY    50  30  46 NW10      29.81S
6HR MIN TEMP:  37; 6HR MAX TEMP:  52;

FRENCHVILLE    CLOUDY    44  28  53 NW10      29.80S
6HR MIN TEMP:  38; 6HR MAX TEMP:  47;

CARIBOU        CLOUDY    48  32  53 NW8       29.80S
6HR MIN TEMP:  39; 6HR MAX TEMP:  51;

$$

NHZ002-005-008-009-011-012-014-301900-
NEW HAMPSHIRE

CITY           SKY/WX    TMP DP  RH WIND       PRES   REMARKS
PORTSMOUTH     PTSUNNY   57  38  50 NW9       29.89S
ROCHESTER      PTSUNNY   58  39  49 NW12G20   29.89S
6HR MIN TEMP:  38; 6HR MAX TEMP:  58;

NASHUA         PTSUNNY   56  37  48 NW6       29.92S
MANCHESTER     PTSUNNY   56  35  45 N12G17    29.90S
6HR MIN TEMP:  38; 6HR MAX TEMP:  58;

CONCORD        PTSUNNY   52  39  61 SW3       29.91F
6HR MIN TEMP:  32; 6HR MAX TEMP:  54; 6HR PCP: TRACE;

LACONIA        MOSUNNY   54  36  50 NW15      29.89S
PLYMOUTH       PTSUNNY   49  42  74 W5        29.91F
BERLIN         CLOUDY    47  34  60 VRB7      29.89F
6HR MIN TEMP:  35; 6HR MAX TEMP:  50; 6HR PCP: TRACE;

WHITEFIELD     CLOUDY    47  34  60 W9        29.91S
6HR MIN TEMP:  37; 6HR MAX TEMP:  49; 6HR PCP: TRACE;

JAFFREY        PTSUNNY   51  37  58 W5        29.92S
6HR MIN TEMP:  36; 6HR MAX TEMP:  52;

LEBANON        PTSUNNY   52  36  54 NW9       29.92F
6HR MIN TEMP:  41; 6HR MAX TEMP:  54; 6HR PCP: TRACE;

MT WASHINGTON  SNOWSHWR  25  25 100 NW32        N/A  VSB 0   WCI   7
6HR MIN TEMP:  23; 6HR MAX TEMP:  25; 6HR PCP:  0.09;

$$

VTZ005-007-008-301900-
VERMONT

CITY           SKY/WX    TMP DP  RH WIND       PRES   REMARKS
ST JOHNSBURY     N/A     48  32  53 MISG      29.91F
MONTPELIER     PTSUNNY   45  33  63 NW8       29.97S
BURLINGTON     MOSUNNY   50  33  52 N10       29.96F
$$

MAZ007-012-024-CTZ003-RIZ002-NYZ038-NYZ072-301900-
SOUTHERN NEW ENGLAND AND NY

CITY           SKY/WX    TMP DP  RH WIND       PRES   REMARKS
BOSTON         MOSUNNY   57  37  47 NW9       29.91S
WORCESTER      CLOUDY    50  35  56 W10       29.92F
NANTUCKET      MOSUNNY   59  40  49 W9        29.91F
PROVIDENCE     MOSUNNY   60  35  39 VRB6G16   29.92F
HARTFORD       PTSUNNY   56  34  43 NW12      29.94F
ALBANY         PTSUNNY   52  36  54 W13G20    29.97F
NEW YORK CITY  MOSUNNY   57  36  45 VRB3      29.97F
$$

ANZ081-ANZ082-ANZ150-NHZ014-MEZ023>029-301900-
COASTAL MARINE OBSERVATIONS

STATION/POSITION TIME  TEMP    WIND        PRES    WAVE
                       AIR SEA DIR/SP/G            HT/PER
                 (UTC) (F)     (DEG/KT/KT) (MB)    (FT/S)
MOUNT DESERT ROC 1800   53                 1011.1R
MATINICUS ROCK   1700          280/  9/ 10 1011.2F
PORTLAND WX BUOY 1750   53 54   30/  4/  6 1012.0F   1/ 7
WELLS            1700   56 51                N/A
ISLE OF SHOALS   1700   53     290/  9/ 10 1011.8F
JEFFREYS LEDGE   1721      54                N/A     2/ 4
CASHES LEDGE BUO 1750   53 55  290/  6/  8 1011.5F   3/ 7
$$

.............KEY..............
   WCI - WIND CHILL
   TC  - TEMPERATURE IN CELSIUS
   VSB - VISIBILITY IN MILES
   HX  - HEAT INDEX
   FAIR- INDICATES FEW OR NO CLOUDS BELOW 12,000 FT, WITH NO
         SIGNIFICANT WEATHER AND/OR OBSTRUCTIONS TO VISIBILITY.





USA.gov is the U.S. government's official web portal to all federal, state and local government web resources and services.